Weather History for Eilat, Israel

Change the Weather History Date:

Tuesday, November 26, 2013

  Actual Average Record
Temperature  
Mean Temperature 75 °F -  
Max Temperature 90 °F 71 °F 90 °F (2013)
Min Temperature 60 °F 54 °F 51 °F (2001)
Cooling Degree Days 10    
Growing Degree Days 25 (Base 50)    
Moisture  
Dew Point 50 °F    
Average Humidity 41    
Maximum Humidity 60    
Minimum Humidity 12    
Precipitation  
Precipitation 0.00 in 0.01 in - ()
Sea Level Pressure  
Sea Level Pressure 29.96 in    
Wind  
Wind Speed 3 mph ()    
Max Wind Speed 7 mph    
Max Gust Speed -    
Averages and records for this station are not official NWS values.
T = Trace of Precipitation, MM = Missing Value Source: Averaged Metar Reports

Daily Weather History Graph

Daily Weather History Graph

Search for Another Location

Airport:

Trip Planner

Search our weather history database for the weather conditions in past years. The results will help you decide how hot, cold, wet, or windy it might be!

Date:

Astronomy

Nov. 26, 2013 Rise Set
Actual Time 6:13 AM IST 4:41 PM IST
Civil Twilight 5:47 AM IST 5:07 PM IST
Nautical Twilight 5:18 AM IST 5:36 PM IST
Astronomical Twilight 4:49 AM IST 6:04 PM IST
Moon No Moon Rise 12:09 PM IST (11/26)
Length of Visible Light 11h 19m
Length of Day
10h 27m
Last Quarter, 44% of the Moon is Illuminated
Nov 26
Last Quarter
Dec 3
New
Dec 9
First Quarter
Dec 17
Full
Dec 25
Last Quarter

Hourly Weather History & Observations

Time (IST) Temp. Heat Index Dew Point Humidity Pressure Visibility Wind Dir Wind Speed Gust Speed Precip Events Conditions
2:00 AM 65 °F - 47 °F 40% 29.95 in - NNE 2.3 mph - -  
5:30 AM 62.6 °F - 46.4 °F 55% 29.95 in - Variable 2.3 mph - N/A   Clear
5:50 AM 62.6 °F - 46.4 °F 55% 29.98 in - Variable 2.3 mph - N/A   Clear
6:50 AM 62.6 °F - 46.4 °F 55% 29.98 in - ENE 4.6 mph - N/A   Clear
7:50 AM 66.2 °F - 46.4 °F 49% 29.98 in - Variable 3.5 mph - N/A   Clear
8:00 AM 68 °F - 46 °F 34% 29.98 in - NNE 2.3 mph - -  
8:50 AM 73.4 °F - 48.2 °F 41% 30.01 in - East 5.8 mph - N/A   Clear
9:50 AM 80.6 °F - 48.2 °F 32% 29.98 in - Variable 2.3 mph - N/A   Clear
10:50 AM 86.0 °F - 42.8 °F 22% 29.98 in - Variable 2.3 mph - N/A   Clear
11:50 AM 86.0 °F - 42.8 °F 22% 29.95 in - South 5.8 mph - N/A   Clear
12:50 PM 87.8 °F - 48.2 °F 25% 29.92 in - SSW 4.6 mph - N/A   Clear
1:50 PM 87.8 °F - 44.6 °F 22% 29.92 in - SSW 6.9 mph - N/A   Clear
2:00 PM 87 °F - 42 °F 12% 29.90 in - South 5.8 mph - -  
2:50 PM 87.8 °F - 48.2 °F 25% 29.92 in - SSW 6.9 mph - N/A   Clear
3:50 PM 84.2 °F 83.5 °F 57.2 °F 40% 29.92 in - SW 6.9 mph - N/A   Clear
4:50 PM 80.6 °F 80.8 °F 57.2 °F 45% 29.92 in - SSW 4.6 mph - N/A   Clear
5:50 PM 77.0 °F - 55.4 °F 47% 29.92 in - Variable 3.5 mph - N/A   Clear
6:50 PM 73.4 °F - 55.4 °F 53% 29.95 in - Variable 3.5 mph - N/A   Clear
7:50 PM 71.6 °F - 57.2 °F 60% 29.98 in - Variable 1.2 mph - N/A   Clear
8:00 PM 73 °F - 59 °F 51% 29.96 in - Calm Calm - -  
8:50 PM 71.6 °F - 55.4 °F 57% 29.98 in - Calm Calm - N/A   Clear
9:50 PM 68.0 °F - 53.6 °F 60% 29.98 in - Variable 1.2 mph - N/A   Clear